[[{"header":{"parameterUnit":"m.s-1","parameterCategory":1,"la1":30.2991,"la2":30.254,"lo1":-89.0895,"lo2":-89.0444,"dy":0.0017,"dx":0.0017,"nx":28,"ny":28,"refTime":"2024-12-22T03:00:00:Z","depth":0,"parameterNumber":2,"parameterNumberName":"U-component_of_WINDS"},"data":[0,0,0,0,0,0,0,0,0,0,0,0,0,0,0,0,0,0,0,0,0,0,0,0,0,0,0,0,0,0,0,0,0,0,0,0,0,0,0,0,0,0,0,0,0,0,0,0,0,0,0,0,0,0,0,0,0,0,-4.7719,-4.772,0,-4.7831,-4.7832,-4.7833,-4.7718,-4.7714,-4.7709,-4.7705,-4.7823,-4.783,-4.7837,0,0,0,0,0,0,0,0,0,0,0,0,0,-4.7409,-4.7415,-4.7719,-4.772,-4.7722,-4.7831,-4.7832,-4.7834,-4.7719,-4.7714,-4.7708,-4.7703,-4.782,-4.7829,-4.7838,0,0,0,0,0,0,0,0,0,0,0,0,0,-4.7534,-4.7417,-4.7719,-4.7678,-4.7675,-4.783,-4.7832,-4.7834,-4.772,-4.7714,-4.7707,-4.7701,-4.7817,-4.7828,-4.7839,-4.8041,0,0,-4.7872,-4.7877,0,0,0,0,0,0,0,0,-4.7527,-4.7546,-4.7682,-4.7681,-4.7678,-4.7754,-4.7766,-4.7904,-4.7722,-4.7703,-4.7705,-4.7697,-4.7805,-4.7817,-4.7853,-4.8047,-4.8052,-4.7873,-4.788,-4.7885,-4.7888,0,0,0,0,0,0,0,-4.7519,-4.754,-4.7763,-4.7684,-4.7682,-4.7654,-4.7665,-4.7791,-4.7791,-4.7704,-4.7696,-4.7711,-4.7803,-4.7842,-4.7855,-4.8053,-4.7873,-4.7883,-4.789,-4.7894,-4.8418,-4.8425,0,0,0,0,0,0,-4.7514,-4.7534,-4.776,-4.7767,-4.7585,-4.7665,-4.7677,-4.7736,-4.7789,-4.7791,-4.7717,-4.7705,-4.7827,-4.7842,-4.7858,-4.8098,-4.7885,-4.7895,-4.7901,-4.8411,-4.8419,-4.8427,0,0,0,0,0,0,-4.7508,-4.7535,-4.7755,-4.7648,-4.7674,-4.7678,-4.7745,-4.7742,-4.7781,-4.7798,-4.7798,-4.7757,-4.7822,-4.7843,-4.7996,-4.81,-4.79,-4.791,-4.8402,-4.8413,-4.8423,-4.8579,0,0,0,0,0,0,-4.75,-4.7534,-4.761,-4.7651,-4.768,-4.7891,-4.7752,-4.7749,-4.78,-4.7786,-4.7836,-4.7838,-4.7819,-4.798,-4.8007,-4.8112,-4.7918,-4.8393,-4.8407,-4.842,-4.8565,-4.8594,-4.8619,0,0,0,0,0,-4.7489,-4.7651,-4.7615,-4.7643,-4.7776,-4.7897,-4.7914,-4.7888,-4.7809,-4.7886,-4.7897,-4.7836,-4.8085,-4.7997,-4.8026,-4.8136,-4.8386,-4.8403,-4.8419,-4.8553,-4.8589,-4.8619,0,0,0,0,0,0,-4.7624,-4.7655,-4.7616,-4.7795,-4.7844,-4.7877,-4.7974,-4.7927,-4.8,-4.7984,-4.795,-4.7962,-4.8124,-4.8145,-4.8047,-4.8334,-4.8222,-4.8246,-4.8314,-4.8348,-4.8375,-4.8367,-4.7927,0,0,0,0,0,-4.7674,-4.777,-4.7792,-4.7948,-4.7975,-4.7971,-4.8023,-4.7998,-4.8048,-4.8068,-4.809,-4.8142,-4.8231,-4.8291,-4.8374,-4.8567,-4.8576,-4.8657,-4.8684,-4.8707,-4.8727,-4.883,-4.8866,-4.8482,-4.8482,-4.8481,0,0,-4.778,-4.7809,-4.7871,-4.7976,-4.8011,-4.8111,-4.7989,-4.81,-4.8174,-4.8085,-4.8231,-4.8249,-4.8304,-4.8478,-4.8556,-4.8501,-4.8835,-4.8728,-4.8745,-4.8754,-4.8851,-4.8887,-4.892,-4.8493,-4.8491,-4.8489,0,0,-4.8023,-4.8055,-4.8188,-4.8225,-4.8279,-4.8275,-4.8307,-4.8348,-4.8356,-4.8501,-4.8437,-4.8525,-4.868,-4.8721,-4.8763,-4.9021,-4.8968,-4.905,-4.9192,-4.9293,-4.9324,-4.935,-4.9442,-4.9476,-4.907,-4.907,-4.9071,0,-4.8147,-4.8295,-4.8262,-4.8378,-4.8426,-4.8349,-4.8484,-4.8522,-4.8602,-4.8637,-4.8574,-4.8766,-4.8798,-4.898,-4.9043,-4.9079,-4.9115,-4.9044,-4.9322,-4.9348,-4.9373,-4.946,-4.9495,-4.908,-4.9079,-4.9078,-4.9077,0,-4.8445,-4.8548,-4.865,-4.8727,-4.8786,-4.8911,-4.8898,-4.8962,-4.8933,-4.8936,-4.9085,-4.912,-4.9209,-4.925,-4.9223,-4.9429,-4.9393,-4.9327,-4.9214,-4.9419,-4.9501,-4.9534,-4.9093,-4.909,-4.9087,-4.9085,0,0,-4.8777,-4.8834,-4.8872,-4.8905,-4.8959,-4.9039,-4.916,-4.9246,-4.9302,-4.9359,-4.946,-4.9593,-4.9531,-4.9579,-4.9555,-4.9644,-4.9846,-4.9567,-4.9567,-4.9617,-5.0075,-5.0125,-5.0164,-4.9811,-4.9817,-4.9822,-5.007,0,-4.9021,-4.9231,-4.9205,-4.9406,-4.9501,-4.9429,-4.9534,-4.958,-4.9586,-4.9667,-4.9674,-4.9768,-4.968,-4.9708,-4.9793,-4.9804,-4.9938,-4.9785,-4.9905,-4.991,-4.9894,-5.0206,-5.0259,-5.0492,-5.0102,-5.0108,-5.0111,0,-4.9334,-4.9401,-4.9612,-4.965,-4.9689,-4.9785,-4.9861,-4.994,-4.9989,-4.9987,-5.004,-5.0001,-5.0123,-5.0008,-5.0176,-5.0073,-5.012,-5.0133,-5.0142,-5.0152,-5.0023,-5.0225,-5.0565,-5.06,-5.0161,-5.0157,-5.0154,0,-4.9555,-4.9698,-4.9842,-4.9873,-4.9922,-4.9991,-5.0014,-5.0057,-5.011,-5.0177,-5.0211,-5.0292,-5.0337,-5.04,-5.0384,-5.0302,-5.0556,-5.044,-5.0558,-5.0559,-5.0615,-5.0612,-5.0968,-5.0647,-5.0646,-5.0645,-5.0645,0,-4.983,-4.9961,-4.9941,-5.003,-5.0175,-5.0144,-5.0289,-5.0304,-5.0343,-5.0433,-5.0376,-5.0463,-5.0436,-5.0522,-5.051,-5.0651,-5.0671,-5.0673,-5.0669,-5.0679,-5.0678,-5.0709,-5.0693,-5.0655,-5.0653,-5.0651,-5.0649,0,-5.0101,-5.0093,-5.0245,-5.0278,-5.029,-5.0395,-5.0424,-5.0508,-5.0509,-5.0624,-5.0649,-5.0652,-5.0749,-5.0739,-5.0849,-5.0841,-5.1015,-5.0992,-5.0999,-5.0993,-5.1112,-5.1101,-5.15,-5.1551,-5.1197,-5.12,-5.1203,0,-5.0277,-5.0376,-5.042,-5.0476,-5.0504,-5.0596,-5.0649,-5.0623,-5.0681,-5.0744,-5.0821,-5.0913,-5.0985,-5.1144,-5.1156,-5.1239,-5.1217,-5.1351,-5.1229,-5.1236,-5.1219,-5.1213,-5.1222,-5.1375,-5.1379,-5.1382,-5.1385,0,-5.059,-5.0581,-5.066,-5.0738,-5.0803,-5.0863,-5.0918,-5.0967,-5.0946,-5.1015,-5.1113,-5.1169,-5.128,-5.1372,-5.1451,-5.1476,-5.1428,-5.1423,-5.1455,-5.1466,-5.1466,-5.1467,-5.1064,-5.1414,-5.1411,-5.1409,-5.1408,-5.1406,-5.0819,-5.0903,-5.0947,-5.1037,-5.1075,-5.1127,-5.1207,-5.1218,-5.1299,-5.1386,-5.1366,-5.1477,-5.1524,-5.1625,-5.1658,-5.1744,-5.1696,-5.1742,-5.1754,-5.1765,-5.1779,-5.1452,-5.1759,-5.1758,-5.1757,-5.1756,-5.1756,0,-5.1129,-5.1153,-5.1236,-5.1313,-5.1384,-5.1331,-5.1389,-5.1452,-5.155,-5.1597,-5.1669,-5.1782,-5.1871,-5.1889,-5.1974,-5.204,-5.202,-5.2064,-5.2058,-5.2065,-5.1818,-5.1782,-5.2078,-5.2078,-5.2078,-5.2078,-5.2078,-5.2078,-5.1298,-5.1438,-5.1435,-5.1593,-5.1616,-5.1724,-5.1761,-5.1809,-5.1846,-5.1975,-5.2048,-5.2059,-5.2095,-5.2182,-5.2262,-5.2265,-5.2299,-5.2351,-5.2346,-5.2115,-5.2082,-5.2052,-5.2017,-5.2359,-5.2359,-5.2585,-5.2588,-5.2589]},{"header":{"parameterUnit":"m.s-1","parameterCategory":1,"la1":30.2991,"la2":30.254,"lo1":-89.0895,"lo2":-89.0444,"dy":0.0017,"dx":0.0017,"nx":28,"ny":28,"refTime":"2024-12-22T03:00:00:Z","depth":0,"parameterNumber":3,"parameterNumberName":"V-component_of_WINDS"},"data":[0,0,0,0,0,0,0,0,0,0,0,0,0,0,0,0,0,0,0,0,0,0,0,0,0,0,0,0,0,0,0,0,0,0,0,0,0,0,0,0,0,0,0,0,0,0,0,0,0,0,0,0,0,0,0,0,0,0,-2.5454,-2.5454,0,-2.5455,-2.5455,-2.5455,-2.5401,-2.54,-2.5398,-2.5397,-2.5399,-2.54,-2.5401,0,0,0,0,0,0,0,0,0,0,0,0,0,-2.5406,-2.5407,-2.5454,-2.5454,-2.5454,-2.5455,-2.5455,-2.5455,-2.5401,-2.54,-2.5398,-2.5396,-2.5398,-2.54,-2.5401,0,0,0,0,0,0,0,0,0,0,0,0,0,-2.5419,-2.5407,-2.5454,-2.5427,-2.5425,-2.5455,-2.5455,-2.5455,-2.5402,-2.54,-2.5397,-2.5395,-2.5398,-2.54,-2.5402,-2.5457,0,0,-2.5408,-2.5409,0,0,0,0,0,0,0,0,-2.5418,-2.542,-2.5431,-2.5429,-2.5427,-2.5426,-2.5438,-2.5456,-2.5402,-2.5411,-2.5397,-2.5394,-2.5409,-2.541,-2.5415,-2.5457,-2.5457,-2.5408,-2.5409,-2.541,-2.5411,0,0,0,0,0,0,0,-2.5417,-2.542,-2.5454,-2.5432,-2.5429,-2.5415,-2.5415,-2.5441,-2.5422,-2.541,-2.5406,-2.5407,-2.5408,-2.5413,-2.5415,-2.5457,-2.5408,-2.541,-2.5411,-2.5412,-2.5543,-2.5545,0,0,0,0,0,0,-2.542,-2.542,-2.5454,-2.5454,-2.5417,-2.5418,-2.5417,-2.5428,-2.5422,-2.5418,-2.5408,-2.5404,-2.5411,-2.5412,-2.5415,-2.5478,-2.541,-2.5412,-2.5413,-2.5541,-2.5543,-2.5546,0,0,0,0,0,0,-2.5419,-2.5423,-2.5454,-2.5436,-2.5439,-2.5421,-2.5434,-2.5429,-2.5435,-2.5421,-2.5417,-2.5418,-2.5409,-2.5412,-2.5446,-2.5477,-2.5413,-2.5415,-2.5538,-2.5541,-2.5544,-2.5606,0,0,0,0,0,0,-2.5418,-2.5423,-2.5445,-2.5437,-2.544,-2.5487,-2.5436,-2.5431,-2.5438,-2.5433,-2.5428,-2.5426,-2.5408,-2.5444,-2.5448,-2.5479,-2.5416,-2.5535,-2.5539,-2.5543,-2.5601,-2.5611,-2.562,0,0,0,0,0,-2.5416,-2.5463,-2.5446,-2.5451,-2.5466,-2.5488,-2.549,-2.5469,-2.5441,-2.5462,-2.5452,-2.5426,-2.5473,-2.5448,-2.5453,-2.5484,-2.5533,-2.5538,-2.5543,-2.5597,-2.5609,-2.5619,0,0,0,0,0,0,-2.5476,-2.5461,-2.5443,-2.5488,-2.549,-2.5479,-2.5505,-2.5482,-2.5492,-2.5487,-2.5459,-2.5459,-2.5498,-2.5494,-2.5466,-2.5537,-2.5498,-2.5504,-2.5537,-2.5549,-2.5558,-2.5558,-2.5418,0,0,0,0,0,-2.5494,-2.5513,-2.5499,-2.5541,-2.5542,-2.5524,-2.5533,-2.5515,-2.5516,-2.5517,-2.551,-2.5512,-2.5527,-2.5538,-2.5551,-2.56,-2.5598,-2.5624,-2.5634,-2.5641,-2.5647,-2.5671,-2.5683,-2.5562,-2.5562,-2.5562,0,0,-2.5532,-2.5526,-2.554,-2.5552,-2.5552,-2.5572,-2.5525,-2.5548,-2.5563,-2.5521,-2.5553,-2.5548,-2.5548,-2.559,-2.5608,-2.5588,-2.5679,-2.5648,-2.5654,-2.5655,-2.5678,-2.5689,-2.5699,-2.5566,-2.5565,-2.5565,0,0,-2.5611,-2.561,-2.5643,-2.5643,-2.5642,-2.5629,-2.5637,-2.5629,-2.5624,-2.5656,-2.5624,-2.564,-2.5668,-2.5669,-2.5673,-2.575,-2.5726,-2.5755,-2.5804,-2.5828,-2.5837,-2.5845,-2.5872,-2.5883,-2.5761,-2.5761,-2.5761,0,-2.5659,-2.5688,-2.5663,-2.5688,-2.5694,-2.5655,-2.5688,-2.569,-2.5694,-2.5698,-2.5676,-2.5708,-2.5705,-2.5746,-2.5765,-2.577,-2.5778,-2.5756,-2.5838,-2.5846,-2.5853,-2.5879,-2.5889,-2.5765,-2.5765,-2.5764,-2.5764,0,-2.5746,-2.5766,-2.5793,-2.5797,-2.5805,-2.5835,-2.5813,-2.5825,-2.5807,-2.5796,-2.5828,-2.5823,-2.5834,-2.5843,-2.5826,-2.5881,-2.5868,-2.5843,-2.5803,-2.5869,-2.5892,-2.5902,-2.577,-2.5769,-2.5768,-2.5767,0,0,-2.5865,-2.5852,-2.5862,-2.5863,-2.5858,-2.5873,-2.59,-2.591,-2.592,-2.5923,-2.5945,-2.5968,-2.5943,-2.5948,-2.593,-2.5951,-2.6012,-2.5922,-2.5922,-2.5939,-2.6071,-2.6091,-2.6102,-2.5995,-2.5997,-2.5998,-2.6071,0,-2.5941,-2.5986,-2.5963,-2.601,-2.6028,-2.5991,-2.6014,-2.6013,-2.6004,-2.6017,-2.6006,-2.6022,-2.5989,-2.5992,-2.6011,-2.6001,-2.6038,-2.5995,-2.6015,-2.6016,-2.6016,-2.6115,-2.6136,-2.6204,-2.608,-2.6082,-2.6083,0,-2.6036,-2.6042,-2.6092,-2.6082,-2.6088,-2.611,-2.6116,-2.6129,-2.6127,-2.6119,-2.6123,-2.61,-2.6125,-2.6086,-2.612,-2.6091,-2.6097,-2.6093,-2.6095,-2.6096,-2.6053,-2.6118,-2.6226,-2.6236,-2.6097,-2.6096,-2.6095,0,-2.6117,-2.6137,-2.6169,-2.617,-2.616,-2.6175,-2.6172,-2.6168,-2.6175,-2.618,-2.6184,-2.6193,-2.6198,-2.6205,-2.6185,-2.6158,-2.6221,-2.618,-2.6214,-2.6215,-2.6229,-2.6229,-2.6339,-2.6234,-2.6234,-2.6234,-2.6233,0,-2.6205,-2.6236,-2.6205,-2.6224,-2.6258,-2.6231,-2.6265,-2.6257,-2.6253,-2.627,-2.6239,-2.6256,-2.6228,-2.6241,-2.6226,-2.6255,-2.6258,-2.6251,-2.6247,-2.6254,-2.6255,-2.6258,-2.6253,-2.6236,-2.6236,-2.6235,-2.6235,0,-2.63,-2.6281,-2.6312,-2.6299,-2.6296,-2.6322,-2.631,-2.6328,-2.6315,-2.6337,-2.634,-2.632,-2.6335,-2.6315,-2.6328,-2.6317,-2.6358,-2.6346,-2.6358,-2.6355,-2.6389,-2.6386,-2.6506,-2.652,-2.6406,-2.6407,-2.6408,0,-2.6358,-2.6381,-2.6369,-2.6378,-2.6376,-2.639,-2.6397,-2.637,-2.6378,-2.6377,-2.6394,-2.6405,-2.6413,-2.6438,-2.6425,-2.6434,-2.6422,-2.6464,-2.6424,-2.643,-2.6422,-2.6421,-2.6423,-2.6472,-2.6473,-2.6474,-2.6475,0,-2.6461,-2.645,-2.646,-2.6466,-2.6474,-2.6478,-2.6479,-2.6488,-2.6461,-2.6471,-2.6485,-2.6491,-2.6503,-2.6514,-2.652,-2.6516,-2.6491,-2.6488,-2.6496,-2.6504,-2.651,-2.6506,-2.638,-2.6485,-2.6484,-2.6484,-2.6483,-2.6483,-2.6539,-2.6557,-2.6551,-2.6563,-2.6561,-2.6562,-2.6577,-2.6566,-2.6577,-2.6584,-2.6568,-2.6585,-2.6581,-2.6586,-2.6584,-2.6598,-2.658,-2.6592,-2.6595,-2.6598,-2.6603,-2.6508,-2.6599,-2.6598,-2.6598,-2.6598,-2.6598,0,-2.664,-2.6634,-2.6645,-2.6647,-2.6656,-2.6631,-2.663,-2.664,-2.6655,-2.6653,-2.6661,-2.6676,-2.6687,-2.6674,-2.6682,-2.6695,-2.6684,-2.6698,-2.6697,-2.6697,-2.6619,-2.6611,-2.6707,-2.6707,-2.6707,-2.6707,-2.6707,-2.6707,-2.6694,-2.6722,-2.671,-2.6737,-2.673,-2.6747,-2.6749,-2.675,-2.6748,-2.6766,-2.6774,-2.6765,-2.6759,-2.6766,-2.6774,-2.677,-2.6775,-2.6793,-2.6785,-2.6713,-2.6702,-2.6692,-2.6684,-2.6794,-2.6794,-2.6861,-2.6862,-2.6862]}]]